Location: Unspecified
(0.0000°N, 0.0000°E)
Time: 07:34:34
(UTC+00:00)

SO-50 - Visible Passes

Search period start: 16 January 2018 00:00
Search period end: 26 January 2018 00:00
Orbit: 611 x 676 km, 64.6° (Epoch: 14 January)

Date Brightness Start Highest point End Pass type
(mag) Time Alt. Az. Time Alt. Az. Time Alt. Az.
16 Jan ? 04:16:42 10° SSE 04:19:24 16° ESE 04:22:05 10° ENE visible
17 Jan ? 04:40:11 10° S 04:44:33 55° ESE 04:48:52 10° NE visible
18 Jan ? 05:05:31 10° SW 05:09:39 39° WNW 05:13:47 10° N visible
19 Jan ? 03:50:41 10° S 03:54:37 31° ESE 03:58:32 10° NE visible
19 Jan ? 05:33:28 10° W 05:34:49 11° WNW 05:36:10 10° NW visible
